Weather History for Seldovia, AK

Change the Weather History Date:

Saturday, February 22, 2014

  Actual Average (PAHO) Record (PAHO)
Temperature  
Mean Temperature 30 °F -  
Max Temperature 35 °F 32 °F 50 °F (1944)
Min Temperature 26 °F 18 °F -3 °F (1966)
Degree Days  
Heating Degree Days 34    
Moisture  
Dew Point 29 °F    
Average Humidity 95    
Maximum Humidity 100    
Minimum Humidity 82    
Precipitation  
Precipitation 0.00 in - - ()
Sea Level Pressure  
Sea Level Pressure 30.15 in    
Wind  
Wind Speed 0 mph (SSE)    
Max Wind Speed 9 mph    
Max Gust Speed -    
Visibility 10 miles    
Events      
Averages and records for this station are not official NWS values.
T = Trace of Precipitation, MM = Missing Value Source: NWS Daily Summary

Daily Weather History Graph

Daily Weather History Graph

Search for Another Location

Airport:

Trip Planner

Search our weather history database for the weather conditions in past years. The results will help you decide how hot, cold, wet, or windy it might be!

Date:

Astronomy

Feb. 22, 2014 Rise Set
Actual Time 8:23 AM AKST 6:18 PM AKST
Civil Twilight 7:41 AM AKST 7:00 PM AKST
Nautical Twilight 6:53 AM AKST 7:47 PM AKST
Astronomical Twilight 6:06 AM AKST 8:35 PM AKST
Moon 3:09 AM AKST (2/22) 10:55 AM AKST (2/22)
Length of Visible Light 11h 19m
Length of Day
9h 55m
Waning Gibbous, 48% of the Moon is Illuminated
Feb 22
Waning Gibbous
Feb 28
New
Mar 8
First Quarter
Mar 16
Full
Mar 23
Last Quarter

Hourly Weather History & Observations

Time (AKST) Temp. Windchill Dew Point Humidity Pressure Visibility Wind Dir Wind Speed Gust Speed Precip Events Conditions
12:53 AM 28.0 °F - 27.0 °F 96% 30.22 in 10.0 mi Calm Calm - N/A   Overcast
1:53 AM 28.0 °F - 27.0 °F 96% 30.22 in 10.0 mi Calm Calm - 0.00 in   Overcast
2:53 AM 27.0 °F - 27.0 °F 100% 30.21 in 10.0 mi Calm Calm - N/A   Overcast
3:53 AM 27.0 °F - 26.1 °F 96% 30.19 in 10.0 mi Calm Calm - N/A   Mostly Cloudy
4:53 AM 26.1 °F - 25.0 °F 96% 30.20 in 10.0 mi Calm Calm - N/A   Overcast
5:53 AM 28.0 °F - 27.0 °F 96% 30.21 in 10.0 mi Calm Calm - N/A   Overcast
6:53 AM 28.0 °F - 27.0 °F 96% 30.20 in 10.0 mi Calm Calm - N/A   Overcast
7:53 AM 27.0 °F - 26.1 °F 96% 30.20 in 10.0 mi Calm Calm - N/A   Overcast
8:53 AM 28.0 °F - 27.0 °F 96% 30.20 in 10.0 mi Calm Calm - N/A   Overcast
9:53 AM 28.0 °F - 28.0 °F 100% 30.20 in 10.0 mi Calm Calm - N/A   Overcast
10:53 AM 28.9 °F - 28.0 °F 96% 30.19 in 10.0 mi Calm Calm - N/A   Overcast
11:53 AM 30.9 °F - 30.0 °F 96% 30.19 in 10.0 mi Calm Calm - N/A   Overcast
12:53 PM 33.1 °F - 30.9 °F 92% 30.17 in 10.0 mi Calm Calm - N/A   Overcast
1:53 PM 33.1 °F - 30.9 °F 92% 30.16 in 10.0 mi Calm Calm - N/A   Overcast
2:53 PM 33.1 °F - 32.0 °F 96% 30.14 in 10.0 mi Calm Calm - N/A   Overcast
3:53 PM 33.1 °F - 32.0 °F 96% 30.12 in 10.0 mi Calm Calm - N/A   Overcast
4:53 PM 33.1 °F - 32.0 °F 96% 30.11 in 10.0 mi Calm Calm - N/A   Overcast
5:53 PM 32.0 °F - 32.0 °F 100% 30.10 in 10.0 mi Calm Calm - N/A   Overcast
6:53 PM 32.0 °F - 32.0 °F 100% 30.09 in 10.0 mi Calm Calm - N/A   Overcast
7:53 PM 32.0 °F - 32.0 °F 100% 30.07 in 10.0 mi Calm Calm - N/A   Overcast
8:53 PM 33.1 °F - 30.9 °F 92% 30.07 in 10.0 mi Calm Calm - N/A   Overcast
9:53 PM 35.1 °F 29.3 °F 30.0 °F 82% 30.04 in 10.0 mi SE 6.9 mph - N/A   Overcast
10:53 PM 34.0 °F 26.6 °F 30.0 °F 85% 30.06 in 10.0 mi SSE 9.2 mph - N/A   Overcast
11:53 PM 34.0 °F 28.8 °F 30.0 °F 85% 30.06 in 10.0 mi South 5.8 mph - N/A   Overcast